Location: Bavegemberg
(50.9500°N, 3.8833°E)
Time: 11:49:58
(UTC+00:00)

SL-14 R/B - Pass Details

Date: 23 May 2024
Orbit: 508 x 541 km, 82.4° (Epoch: 14 June)

Event Time Altitude Azimuth Distance (km) Brightness Sun altitude
Exits shadow 01:01:41 28° 236° (SW) 1,006 4.2 -16.2°
Maximum altitude 01:03:11 41° 286° (WNW) 764 4.0 -16.2°
Drops below altitude 10° 01:06:52 10° 358° (N) 1,759 7.0 -16.0°
Sets 01:09:06 0° 6° (N) 2,646 8.3 -15.8°
